Wind_Speed
27 28 28 29 30 30 30 30 30 30 30 30 29 29 28 28 26 26 26 25 25 24 22 21 21 20 19 19 22 25 26 28 30 31 31 31 29 29 28 26 23 21 20 20 19 18 15 14 13 13 14 14 14 14 14 14 14 14 14 14 14 14 14 14 15 16 16 16 16 18 19 17 16 16 17 17 17 16 18 19 18 18 18 18 17
25 25 26 27 28 29 29 30 31 31 31 31 31 31 30 30 28 28 29 28 27 26 25 24 23 23 22 21 22 25 26 27 30 32 32 32 31 31 30 28 26 24 22 22 21 20 19 17 16 15 16 17 16 16 16 16 15 15 15 15 16 16 16 16 16 17 18 19 18 18 20 20 19 19 19 19 19 19 19 20 20 19 19 19 18
24 24 25 25 25 26 28 30 32 32 32 32 32 32 31 31 30 30 30 29 29 28 27 26 26 25 25 24 24 25 26 27 29 32 33 33 33 33 32 31 29 27 25 23 23 23 22 20 19 18 18 19 18 18 18 18 17 17 17 17 17 18 18 18 18 19 20 21 21 21 21 22 22 22 22 21 23 23 22 22 22 22 21 21 21
25 24 25 25 24 25 27 29 30 31 33 33 32 32 32 32 32 31 31 31 31 31 29 28 28 28 27 28 26 26 27 27 28 31 33 34 34 34 34 33 32 30 28 26 25 25 25 23 22 22 22 21 21 20 20 20 19 19 19 18 18 18 19 19 19 20 21 22 23 23 24 24 24 24 24 23 24 25 25 24 24 23 23 23 23
27 25 25 26 26 26 26 27 28 29 30 31 31 31 32 32 33 32 32 33 33 32 32 31 31 30 29 29 29 28 27 27 28 30 32 34 35 35 36 35 34 33 31 29 28 27 27 26 25 25 25 24 23 22 22 21 21 21 21 21 20 19 20 20 20 20 21 23 24 24 25 25 26 26 25 25 26 26 25 25 25 25 26 26 26
31 28 26 27 28 27 27 27 27 27 27 28 29 29 31 32 32 31 31 33 34 34 34 33 33 32 31 30 30 29 28 28 28 29 30 33 35 36 37 37 37 35 34 32 31 30 29 28 28 28 28 27 25 24 24 23 23 23 23 23 22 21 20 20 21 21 21 22 24 25 26 26 26 26 26 27 27 27 26 26 27 28 28 28 26
36 32 29 28 28 28 28 27 27 26 25 25 27 28 28 29 30 29 29 30 32 33 34 33 33 33 32 31 31 31 30 29 29 28 29 31 34 36 37 38 38 37 36 35 34 33 31 31 30 31 30 29 28 27 26 26 25 25 25 25 24 23 22 21 22 22 22 23 23 24 26 27 27 27 27 27 27 27 27 28 28 28 28 27 26
39 37 33 31 30 28 28 27 27 26 24 24 25 26 26 25 26 26 25 26 28 30 32 32 31 31 32 31 31 31 31 30 30 29 29 30 32 34 36 38 38 38 38 37 37 36 35 33 33 33 33 31 30 29 28 28 28 27 27 27 26 25 24 23 23 23 23 24 24 24 25 27 27 27 27 28 27 26 27 29 29 28 28 28 26
40 40 38 34 32 30 29 28 27 26 26 25 25 25 24 23 23 24 23 23 24 26 28 29 29 29 30 31 31 31 32 32 31 30 29 30 31 33 35 37 39 38 38 39 39 38 37 36 35 35 34 33 32 31 30 30 30 30 29 29 28 27 26 25 24 24 24 24 24 25 25 26 27 27 27 28 27 26 26 28 28 28 28 28 27
39 41 40 37 35 33 31 29 27 27 26 26 25 25 25 24 23 24 23 21 21 22 24 26 27 26 27 30 31 32 33 33 32 31 30 29 30 32 34 36 38 39 39 39 40 40 40 39 38 37 36 36 34 33 32 32 33 32 31 31 31 29 28 26 25 25 25 24 24 25 25 26 26 27 27 27 27 26 26 26 28 28 27 28 29
36 39 40 39 38 36 34 31 29 28 27 27 26 26 26 26 25 25 24 23 21 21 22 24 25 24 23 26 29 31 32 32 31 31 30 30 31 32 34 36 38 40 41 41 41 42 42 41 40 39 38 37 37 35 34 34 35 35 34 33 33 32 30 28 27 26 26 25 25 25 25 26 26 27 28 27 27 27 26 26 28 28 27 28 30
31 33 38 40 40 38 36 34 32 31 30 29 28 28 28 28 28 27 26 25 24 23 23 24 24 24 23 22 25 27 29 29 30 30 31 31 31 32 34 36 38 39 41 42 42 42 43 43 42 42 41 39 38 37 36 36 37 37 37 36 35 34 33 30 28 27 27 27 26 26 26 26 25 26 27 27 28 29 28 27 27 27 28 29 30
28 29 34 37 38 38 37 35 34 33 32 31 31 30 30 30 30 30 29 28 27 26 25 25 25 25 25 23 22 24 25 26 27 29 30 31 32 33 35 37 38 39 40 41 42 43 43 43 44 44 43 42 41 40 39 38 39 40 40 38 37 36 35 33 30 28 28 28 27 27 26 26 26 26 27 28 29 29 28 27 26 27 29 29 29
29 27 29 33 35 36 36 35 34 34 34 34 33 33 32 32 32 32 32 31 30 28 28 27 26 26 26 26 24 23 24 25 25 26 27 29 31 33 35 37 39 40 40 41 43 43 43 44 45 45 45 44 43 42 41 41 41 42 42 41 39 38 37 35 32 30 29 29 28 27 27 27 27 27 27 29 29 29 28 26 26 27 29 29 28
30 26 27 31 33 34 34 34 35 36 36 36 36 34 33 33 34 34 34 34 32 30 30 29 28 28 28 29 28 27 26 26 26 26 26 27 30 32 35 38 39 41 42 42 43 44 44 45 45 46 47 47 45 44 43 43 43 44 44 44 42 41 40 37 34 32 31 30 29 29 28 28 28 28 28 29 29 29 28 27 27 28 29 29 28
30 28 26 29 32 32 32 33 34 36 37 37 37 35 33 34 35 36 36 35 34 33 32 31 31 31 31 31 32 31 30 29 29 29 27 27 29 32 35 37 40 41 43 44 45 45 45 45 46 47 48 48 47 45 45 46 46 46 46 46 45 44 42 39 36 34 33 31 30 30 29 28 28 29 29 30 29 29 28 27 27 28 28 28 27
29 29 27 28 32 32 31 32 33 35 36 36 36 35 34 35 36 37 37 37 35 34 33 33 33 33 33 33 33 33 33 32 32 32 31 30 30 32 35 37 39 42 43 45 46 46 46 47 47 48 49 49 48 47 47 48 49 48 48 48 48 47 45 42 38 37 35 34 32 31 30 29 29 29 30 30 30 30 29 29 28 28 28 27 25
28 30 29 29 32 32 31 32 33 33 33 33 33 34 34 35 36 36 36 36 36 36 36 36 36 36 36 36 35 35 36 36 35 34 34 33 33 34 36 38 40 41 43 45 47 47 48 48 49 50 51 50 50 50 50 50 50 51 50 50 50 50 48 45 42 39 38 36 34 32 31 31 30 30 31 30 30 30 30 30 29 28 28 26 24
27 31 32 30 31 33 32 32 32 32 31 31 32 33 34 34 35 36 36 37 37 38 38 38 38 39 39 39 38 38 38 39 38 36 36 36 36 37 38 40 41 41 42 44 46 47 48 49 49 51 52 51 51 52 53 52 52 53 53 53 53 52 50 48 46 42 40 39 36 34 32 31 31 31 31 30 30 30 29 30 29 28 28 26 23
26 31 34 32 31 32 33 33 32 32 31 32 33 35 36 36 37 38 38 39 40 41 41 41 41 42 42 42 42 42 42 42 41 39 38 38 38 39 41 42 42 43 43 44 45 46 48 50 50 51 52 52 52 53 55 54 53 54 55 56 56 54 52 51 49 44 41 40 39 36 34 32 32 32 32 30 29 29 29 29 28 28 28 25 24
26 30 35 35 33 33 34 35 34 33 33 34 36 37 38 39 40 40 41 42 42 43 43 43 44 44 44 44 44 44 44 45 44 42 40 39 38 40 42 43 43 44 45 45 45 46 48 50 51 51 52 53 53 54 56 55 54 54 56 57 57 55 54 54 51 47 43 42 41 39 36 34 33 33 32 30 29 28 28 27 27 28 26 25 24
26 28 34 37 36 34 35 36 35 35 36 37 38 39 40 41 42 43 43 44 45 45 45 45 45 45 44 44 45 45 45 45 45 43 40 38 38 40 42 43 44 46 47 47 47 48 48 49 51 52 53 54 55 56 56 56 56 55 56 57 57 56 56 56 53 49 46 45 43 40 37 35 34 35 34 30 28 27 27 26 26 26 25 25 25
25 25 31 38 40 37 37 37 37 37 38 39 40 41 43 44 45 45 45 46 45 44 43 42 42 42 43 42 42 42 43 44 43 40 37 36 38 40 41 43 44 46 48 48 49 49 50 50 52 53 53 53 55 56 57 57 56 56 55 57 58 58 57 56 54 51 49 47 44 41 38 37 36 36 33 30 27 26 25 25 25 24 25 26 25
25 25 28 36 42 41 39 39 39 38 39 41 42 43 44 46 46 45 44 44 43 41 40 40 41 42 42 41 40 39 40 41 41 38 35 35 37 39 40 41 43 45 47 47 48 50 52 52 53 54 54 54 55 56 57 57 57 56 55 56 58 58 57 57 55 52 50 48 45 42 41 40 38 36 33 29 27 25 23 23 23 23 24 25 24
23 24 25 31 40 44 43 41 41 41 42 43 44 44 45 45 45 43 42 42 41 41 42 43 44 45 44 42 40 40 39 40 40 39 36 35 36 37 38 40 43 45 46 46 47 50 52 53 54 56 56 56 57 57 57 57 58 57 55 56 58 59 59 58 57 53 51 49 46 44 43 40 37 34 32 29 26 23 21 22 23 22 24 25 25
21 23 23 26 33 41 43 41 41 42 42 42 43 43 43 43 43 43 42 43 44 45 46 46 47 47 46 45 43 42 41 41 41 40 39 38 38 39 39 40 42 44 45 45 46 48 51 52 55 58 58 59 60 60 58 57 58 56 54 55 58 60 61 61 60 56 52 50 47 45 43 38 35 34 32 29 25 21 20 22 23 22 25 27 27
19 21 23 24 28 32 35 36 37 37 37 37 37 38 40 41 42 42 42 44 46 47 47 48 49 49 48 47 45 43 42 42 41 41 41 42 41 42 42 43 44 46 47 47 48 48 49 51 54 57 58 59 59 59 58 58 58 58 58 58 61 62 63 63 62 59 53 50 47 45 41 38 37 35 32 27 24 21 20 22 22 22 27 30 29
20 20 22 25 26 28 30 31 31 31 32 32 33 35 37 39 41 42 43 44 47 48 48 48 48 47 45 44 43 42 42 41 41 42 43 45 45 45 46 46 47 49 50 51 51 51 50 51 53 55 56 57 59 60 60 59 59 60 62 64 65 65 64 64 64 61 57 53 49 46 43 41 39 35 30 26 23 20 20 22 22 23 28 32 31
21 21 22 24 26 26 26 26 26 26 26 27 29 31 33 35 37 40 41 43 44 46 46 45 44 43 42 41 41 42 42 41 42 44 46 48 49 49 51 51 51 52 53 53 54 53 53 55 57 55 53 55 58 61 63 62 61 61 63 65 67 67 67 67 66 64 62 59 53 47 47 45 39 33 28 25 22 19 18 21 23 24 28 32 32
22 23 24 25 26 25 25 24 24 23 23 24 25 25 25 27 29 31 33 34 37 39 40 41 41 42 42 42 43 44 44 45 45 46 47 49 49 50 51 53 53 52 51 50 50 51 52 55 56 54 52 54 59 62 64 65 64 64 64 65 68 68 67 67 67 65 64 59 52 48 48 45 37 30 26 23 21 20 20 22 24 26 29 33 32
24 24 24 25 25 25 25 25 24 23 23 24 23 23 23 24 25 26 27 28 30 32 34 36 37 38 40 41 42 43 44 44 44 44 44 45 46 46 47 48 50 50 47 46 47 50 51 54 57 56 55 57 60 63 65 66 67 68 67 66 67 68 67 66 66 66 63 57 51 49 48 44 37 31 28 28 27 26 25 26 26 27 31 33 31
25 25 25 25 24 24 25 24 24 23 23 23 24 24 25 25 26 27 28 29 30 31 33 34 36 38 39 41 41 41 42 42 43 43 42 42 43 44 45 46 48 48 48 48 51 54 54 56 59 61 61 62 64 65 66 68 68 68 67 67 66 66 66 66 65 64 60 54 51 50 50 47 40 34 32 31 28 26 27 27 26 28 33 34 30
26 26 26 26 26 25 25 24 24 24 23 23 25 26 27 28 29 29 30 31 32 33 35 35 37 38 39 40 41 41 41 42 42 42 42 43 44 45 46 47 47 47 48 50 53 55 55 57 61 63 65 66 67 66 67 69 69 68 67 68 67 65 66 67 65 62 57 54 53 53 52 48 42 37 33 29 24 23 26 26 25 29 34 33 29
28 27 27 27 26 25 25 24 24 24 24 24 26 27 27 29 30 31 31 32 33 34 35 35 36 37 38 39 40 41 41 41 41 42 42 43 45 46 47 48 47 47 48 50 52 54 56 59 62 65 67 69 68 67 67 69 70 69 67 67 67 66 66 67 65 61 59 57 56 54 52 48 43 38 32 26 22 23 25 25 26 31 34 31 27
27 26 26 25 25 25 25 24 24 25 25 26 27 27 28 29 31 32 33 34 34 34 34 35 36 37 37 38 38 39 39 39 39 40 41 41 43 43 44 45 45 45 47 48 51 54 57 60 63 66 68 70 70 69 68 69 71 70 68 66 66 67 68 68 66 62 60 57 54 50 49 48 43 37 31 26 24 23 23 25 29 33 33 29 26
25 25 25 25 25 25 26 26 26 26 26 27 28 29 30 30 31 33 34 35 35 34 34 34 34 34 35 35 36 35 35 34 34 34 35 36 37 38 39 40 41 42 44 46 50 53 55 58 59 60 62 65 67 68 71 74 75 73 69 65 65 67 70 69 65 61 58 53 47 43 43 42 38 33 30 26 23 20 22 27 31 33 31 28 25
25 25 25 24 24 25 25 25 26 27 27 28 29 30 32 33 34 34 33 33 32 31 30 30 30 29 29 30 30 29 28 27 28 30 31 32 33 34 36 37 39 41 43 46 49 50 52 52 51 50 55 60 62 63 67 73 76 76 72 65 62 64 68 68 63 57 53 47 40 36 35 34 31 28 26 22 20 20 24 29 31 32 31 28 24
24 23 23 23 23 23 24 25 26 27 29 30 31 33 34 34 33 31 29 28 26 25 25 25 25 24 24 25 26 25 25 24 26 28 29 30 31 32 33 35 37 39 41 44 45 46 45 44 42 44 49 53 50 48 54 64 73 77 72 62 56 57 62 64 58 49 45 41 35 31 30 27 25 23 22 20 21 23 26 29 31 31 30 27 24
21 21 21 21 21 22 24 25 27 28 30 31 32 32 31 29 27 25 24 23 22 22 22 22 22 22 23 24 24 23 23 23 24 27 28 29 29 30 31 32 33 35 37 40 40 40 38 36 37 39 37 33 32 35 44 57 66 68 62 54 53 54 57 57 50 42 39 36 31 26 25 25 24 23 22 22 23 24 26 29 31 29 27 26 24
18 18 19 19 20 20 21 23 25 26 26 26 26 25 23 22 21 21 20 20 20 20 21 21 21 21 21 22 22 21 22 22 23 25 26 28 28 28 29 30 30 31 33 33 33 33 32 33 38 41 32 21 20 26 35 45 56 60 58 55 55 54 51 47 42 38 36 32 25 22 23 24 24 24 24 24 24 24 26 28 28 27 26 26 24
16 17 17 18 19 19 19 20 20 20 20 19 18 18 17 18 18 18 18 19 19 19 20 19 19 19 19 20 20 19 20 21 22 23 25 27 28 28 28 29 29 28 27 25 24 25 26 27 30 32 26 15 10 14 20 27 34 39 41 41 42 43 43 42 39 36 32 27 22 21 22 22 23 24 24 23 23 23 25 27 26 26 26 26 25
15 16 17 17 18 17 17 16 15 14 14 14 14 14 15 16 16 16 17 17 16 16 16 16 16 17 18 19 19 19 19 20 23 24 25 26 28 27 26 25 24 21 19 16 15 16 17 16 15 15 13 6 4 13 16 15 13 13 13 12 14 20 28 33 31 28 25 23 21 20 21 22 22 22 20 20 21 23 25 26 25 25 25 25 26
14 14 14 15 15 14 14 14 13 13 14 14 15 15 15 15 15 15 15 15 15 15 15 15 15 16 16 17 17 18 18 21 23 25 24 24 25 24 21 18 16 14 12 11 11 10 9 8 6 6 6 3 4 7 5 2 2 3 3 1 4 9 14 18 20 21 21 20 19 18 19 19 18 17 17 19 21 23 24 25 25 25 24 24 25
11 11 11 11 12 12 11 11 12 12 13 13 14 14 13 13 13 14 15 15 15 15 16 15 15 15 15 14 15 16 18 21 23 23 22 21 19 17 14 11 9 8 8 9 9 9 7 5 5 5 6 5 5 7 8 8 8 8 7 6 9 12 14 15 16 16 15 14 14 15 15 15 15 17 19 21 22 23 24 24 24 24 24 25 26
10 10 10 10 10 10 10 9 10 10 10 10 11 12 13 13 14 15 16 16 16 15 15 14 14 14 14 14 15 17 19 19 20 20 19 16 13 12 12 9 5 6 6 7 8 9 8 7 6 6 7 6 4 3 4 6 9 9 9 11 12 12 12 11 10 10 11 12 13 13 14 15 16 18 21 22 23 23 23 24 24 25 25 26 26
14 14 13 12 12 12 12 12 12 12 12 12 13 14 15 16 16 17 16 16 15 15 14 13 13 14 15 16 18 19 19 18 17 16 15 13 11 11 10 8 6 7 7 6 5 6 6 6 6 8 8 6 3 2 1 3 6 9 10 11 10 9 9 9 9 10 11 11 12 13 15 16 18 19 22 23 23 23 23 25 26 26 26 26 26
15 14 14 14 15 16 16 16 16 16 16 16 17 17 17 17 17 17 17 17 16 16 15 14 14 15 16 17 18 18 18 16 15 14 13 11 10 9 8 8 8 8 7 5 3 2 3 4 5 6 6 5 4 4 4 6 8 9 10 10 10 9 9 9 10 11 11 12 13 14 16 18 19 20 22 23 23 23 24 25 26 27 27 25 25
15 15 15 16 17 17 17 17 18 18 18 19 19 19 19 19 19 19 18 18 17 17 16 15 15 15 15 16 17 18 16 14 13 12 11 10 9 7 6 7 7 6 5 3 3 2 2 2 2 2 2 3 4 4 4 5 6 7 8 8 8 8 9 10 10 11 11 12 14 16 17 18 20 21 22 22 23 24 24 24 25 26 27 25 25
16 16 16 16 16 17 17 17 18 19 20 20 20 20 20 21 21 21 20 19 19 19 19 18 16 15 15 16 16 16 14 12 11 10 9 8 8 7 6 6 5 4 3 2 2 2 1 1 1 1 1 0 2 2 3 4 5 6 7 7 7 8 9 10 11 11 12 14 16 17 18 19 20 22 23 23 22 23 24 24 23 24 26 26 25
13 13 13 14 14 13 14 14 15 16 18 19 20 20 21 22 22 22 22 21 20 20 20 19 19 19 19 17 16 15 12 10 9 8 7 7 6 6 4 4 4 4 4 3 3 3 3 3 3 2 2 2 2 3 4 5 6 7 7 7 7 9 10 11 12 13 15 16 17 18 19 21 22 23 24 24 23 22 23 23 23 24 25 26 25
8 8 8 8 9 10 10 10 10 11 12 13 15 16 18 19 20 21 22 22 22 22 21 21 21 21 20 17 15 14 13 11 10 9 9 9 8 8 7 6 5 5 4 4 4 4 5 5 5 5 5 5 5 6 7 8 8 8 8 9 11 12 13 14 14 16 17 17 18 20 21 23 24 24 25 25 24 23 23 23 23 24 24 25 26
Wind_Direction
222 223 224 225 226 226 227 227 229 230 231 232 233 234 237 239 240 241 243 245 246 247 249 250 252 253 254 251 247 245 242 239 235 231 230 231 231 234 237 237 237 240 241 241 241 242 241 244 253 262 270 277 283 288 293 296 299 303 304 305 305 304 304 305 305 307 308 308 306 302 303 303 299 299 302 304 306 306 305 305 304 303 301 300 300
220 219 221 223 225 226 227 229 230 232 233 234 234 235 237 239 241 241 243 246 248 249 250 251 252 253 254 254 251 247 244 240 238 235 232 232 233 234 238 240 239 240 242 243 244 245 246 247 253 259 265 272 279 284 289 292 296 299 302 303 303 303 303 303 303 305 307 309 308 304 303 304 301 299 300 300 302 304 304 304 305 305 303 301 301
219 218 218 220 221 222 225 228 230 232 234 235 235 236 238 241 242 243 244 246 248 250 251 252 253 253 253 254 254 251 247 242 239 238 235 234 234 235 238 241 242 242 243 245 246 248 249 250 253 258 262 267 274 279 284 290 294 297 299 302 303 304 305 304 303 304 304 306 308 308 306 305 304 303 304 303 303 304 304 303 304 305 304 303 301
220 217 215 216 218 219 221 224 227 229 232 235 236 237 239 242 244 245 245 246 248 250 251 252 252 252 252 253 254 253 251 246 240 239 238 236 235 236 238 241 243 243 244 246 248 250 251 252 253 257 262 265 269 274 279 286 291 294 296 299 302 303 304 305 305 303 302 303 306 307 307 307 307 307 308 307 305 306 306 303 303 304 303 303 301
223 219 214 213 214 215 217 219 222 224 228 232 235 237 240 242 244 245 245 246 248 249 249 250 252 252 251 252 254 255 254 250 244 241 240 238 236 237 238 240 243 244 245 246 248 251 253 254 254 257 261 264 267 271 276 281 286 290 292 296 299 301 301 304 305 304 303 302 304 305 306 307 307 308 309 308 306 306 306 304 304 303 302 303 302
228 224 217 214 212 211 213 215 218 220 222 227 231 235 238 242 244 244 243 244 247 248 248 249 250 252 252 252 254 256 255 254 249 244 241 240 238 237 238 240 242 244 245 246 249 252 253 254 255 257 260 263 266 269 272 277 281 285 288 291 295 297 299 301 303 305 304 303 302 304 306 306 306 306 307 306 305 306 307 305 303 302 302 303 302
231 228 223 218 215 213 213 215 217 219 220 223 227 232 234 238 241 242 242 242 244 247 249 248 248 250 252 252 253 256 255 255 253 247 243 241 240 238 239 241 242 243 245 246 248 251 254 255 255 256 259 262 265 267 271 275 279 282 285 287 290 294 297 299 301 303 304 303 302 302 304 304 305 305 304 302 303 306 307 305 302 300 300 301 301
230 230 227 223 220 217 216 217 217 219 222 224 227 231 233 234 238 241 242 241 241 245 249 250 248 247 249 250 251 253 254 254 253 250 245 243 243 241 240 241 243 244 245 246 247 250 253 255 255 256 257 260 262 265 268 272 276 279 281 283 287 291 295 298 300 301 302 302 301 301 301 301 302 303 302 300 301 303 303 300 300 299 299 299 299
228 229 229 225 223 221 220 221 220 221 224 227 229 233 235 236 238 241 243 241 241 243 247 251 250 246 246 248 248 249 251 252 251 250 247 245 245 245 243 242 244 245 246 246 247 249 252 255 256 256 257 259 261 263 266 269 273 276 279 281 284 288 292 296 299 300 300 299 298 298 298 298 300 301 300 299 299 298 296 295 296 298 297 297 298
228 228 229 226 224 224 224 224 224 224 226 230 232 235 238 240 240 242 244 244 242 243 246 250 253 250 246 246 247 247 248 250 251 250 250 248 246 247 247 245 245 246 247 248 248 249 251 254 256 257 257 259 260 261 263 266 270 273 277 280 282 285 289 293 297 299 299 298 297 296 295 296 298 299 298 298 296 293 291 291 293 294 294 296 298
231 229 229 228 226 225 225 225 226 227 229 233 235 237 240 244 246 246 248 247 245 244 245 248 253 255 251 247 248 249 250 251 252 252 251 250 249 248 248 248 246 246 248 249 249 249 250 252 256 257 257 258 259 260 262 264 268 271 275 278 280 283 286 290 294 297 298 297 294 291 291 293 296 296 297 297 295 291 289 288 290 291 293 296 299
236 233 229 228 227 226 225 225 226 228 230 233 237 238 240 244 248 250 251 252 251 249 249 250 253 257 258 253 251 253 255 256 256 255 254 252 251 250 249 250 249 248 248 249 250 251 251 252 254 256 257 258 259 259 260 262 265 268 271 274 277 280 283 286 290 293 295 295 292 289 289 292 293 294 296 297 295 293 291 289 288 289 293 297 299
238 236 231 228 227 225 225 225 225 227 229 232 235 238 238 241 245 249 252 254 255 255 255 255 255 258 261 261 258 257 260 262 261 260 258 256 254 253 252 251 251 251 250 250 251 252 252 252 253 254 257 258 259 259 259 261 263 266 269 271 274 277 280 283 287 289 291 292 290 288 288 290 292 294 295 296 296 296 295 293 290 289 293 296 298
238 239 233 229 227 225 223 223 224 225 227 230 233 236 237 239 242 246 250 252 255 256 257 258 259 260 263 265 265 262 262 264 265 264 263 261 258 255 254 254 254 253 253 252 251 252 253 254 254 255 256 257 258 259 259 260 261 264 266 268 271 274 277 280 283 285 287 289 289 286 285 288 291 292 293 293 295 296 294 291 289 289 291 294 295
238 242 236 230 228 226 223 222 222 223 226 229 232 235 237 238 240 244 247 251 253 255 257 259 260 262 263 265 267 266 264 265 266 264 263 262 261 258 256 256 256 257 256 255 254 253 254 255 256 257 257 257 259 259 259 260 261 262 264 266 269 271 274 277 281 283 284 285 286 284 282 283 287 290 291 291 292 293 292 289 287 287 289 291 293
239 244 241 233 229 228 226 223 223 224 226 229 232 235 236 238 240 242 245 249 252 254 256 258 260 262 263 264 266 268 268 267 267 266 264 261 260 259 257 257 258 258 259 258 257 256 255 256 257 258 258 259 260 260 259 259 260 262 263 265 267 269 272 275 278 280 281 281 281 281 279 279 282 286 288 289 289 289 288 286 285 286 288 290 292
242 244 244 236 231 229 227 225 226 228 230 232 234 236 237 238 240 241 244 248 251 254 257 258 259 261 263 265 267 269 271 270 269 268 267 263 260 258 258 258 258 258 259 259 260 259 258 257 257 257 258 259 262 263 261 260 261 262 263 265 267 269 271 273 275 277 278 278 278 277 276 276 278 281 284 287 286 285 285 285 285 285 286 287 289
245 244 243 238 232 230 227 226 228 231 233 235 236 236 237 239 241 243 245 248 251 254 257 258 259 260 262 265 267 268 270 270 270 269 268 266 263 260 258 258 258 259 259 259 260 261 262 260 259 258 259 259 261 263 262 261 262 263 264 265 266 268 270 272 273 275 276 276 275 273 272 272 274 277 280 283 283 284 284 284 284 283 282 283 286
247 242 240 237 234 232 229 227 229 232 234 236 237 238 239 241 243 244 246 247 249 250 253 256 257 258 259 261 263 264 265 266 268 269 268 266 264 261 259 258 259 259 259 259 261 262 263 263 261 260 260 260 260 262 263 262 262 263 265 265 266 268 270 271 272 274 274 274 272 270 268 268 270 274 278 280 281 282 283 283 282 281 280 281 281
246 240 236 235 235 233 230 228 229 230 232 234 236 238 240 242 242 243 243 244 245 246 248 251 253 255 256 257 259 261 262 263 264 266 267 266 264 262 261 260 260 260 261 261 262 263 263 264 264 263 263 262 261 261 263 263 262 263 264 265 267 269 269 269 271 273 273 272 270 267 266 265 267 271 276 278 279 280 281 281 280 278 278 278 278
239 238 235 233 233 233 231 230 230 228 230 232 234 236 239 240 240 241 241 241 242 243 245 247 249 252 255 256 258 260 261 262 264 266 268 268 267 264 262 261 261 261 261 262 263 264 264 265 265 264 263 263 263 262 263 264 264 263 264 265 267 268 268 268 269 270 270 269 268 266 263 263 266 272 275 276 276 276 278 278 276 275 275 274 275
235 237 235 232 231 232 232 231 230 228 228 230 232 234 235 236 238 238 239 239 240 241 243 245 247 251 254 256 257 259 260 261 263 266 267 268 266 264 263 262 260 260 260 261 261 262 263 264 266 266 265 264 264 263 264 264 264 264 265 265 266 266 266 267 268 268 268 268 267 265 262 260 265 270 272 272 273 273 274 274 272 272 272 271 272
235 237 235 231 229 231 231 231 230 229 230 232 233 233 234 235 237 237 239 240 241 241 242 244 247 249 252 254 256 257 258 259 261 262 264 264 264 263 263 262 261 261 261 262 263 264 264 264 265 266 266 266 265 264 264 265 265 265 265 266 266 266 266 266 266 267 266 267 266 263 258 258 263 267 269 270 271 270 270 270 270 270 271 271 272
239 241 239 233 229 229 230 230 230 231 233 234 235 235 236 237 237 238 239 240 239 240 241 245 249 252 254 255 255 255 256 257 258 259 261 262 263 264 264 264 264 263 263 264 265 265 265 265 266 266 267 267 265 264 264 264 264 264 264 264 265 266 265 265 265 266 265 265 264 260 256 257 261 265 266 266 267 267 267 266 269 273 272 271 271
240 241 241 237 232 229 230 231 232 233 235 236 237 237 237 237 236 236 238 238 238 240 244 247 251 254 254 255 254 254 254 254 256 258 260 261 262 263 262 262 263 264 264 264 264 264 264 265 266 266 266 266 266 265 264 263 262 261 261 261 263 264 264 265 265 265 264 264 262 258 254 255 259 262 262 261 264 268 268 266 269 278 280 275 271
239 238 239 239 234 231 231 233 235 237 239 240 241 241 239 238 238 239 240 240 240 242 245 249 251 253 254 254 253 252 251 252 254 258 260 260 260 260 260 259 260 263 264 264 263 263 262 262 262 263 264 264 264 264 263 262 262 261 259 258 259 261 263 264 265 265 265 263 261 256 253 254 257 258 256 257 262 266 267 266 270 282 289 283 273
239 238 236 235 233 231 232 234 237 240 242 243 244 244 243 242 242 243 244 243 242 244 247 249 251 252 252 252 251 250 250 252 255 257 259 259 259 259 259 259 260 263 265 265 265 263 262 261 260 261 261 262 264 267 267 265 263 261 259 258 258 259 260 262 264 265 264 261 258 255 253 253 253 252 252 255 260 262 264 265 271 287 295 286 273
242 242 239 236 233 231 232 233 236 238 240 242 244 245 244 243 243 243 243 243 244 246 247 248 248 249 249 250 250 252 254 255 256 258 260 261 262 262 261 261 262 264 265 266 265 264 263 263 261 260 258 259 261 264 265 264 262 259 258 256 256 256 257 258 260 261 261 260 257 252 250 250 247 247 249 251 253 257 262 263 269 286 292 282 271
243 244 241 236 233 232 232 233 235 237 240 242 244 245 246 247 246 246 247 249 250 250 250 249 248 249 249 251 253 256 257 258 259 260 261 262 262 262 262 262 263 264 265 266 268 268 268 266 265 263 262 261 260 261 262 262 260 258 256 255 253 253 253 254 256 258 259 261 258 251 248 249 246 242 242 244 249 259 268 267 269 279 283 276 268
242 241 239 236 234 232 231 232 234 236 238 241 243 244 245 247 249 251 253 255 255 254 253 253 253 253 253 254 257 259 260 261 262 263 263 264 265 265 266 267 268 268 269 272 274 275 274 272 271 270 268 267 265 264 263 263 262 260 257 255 253 252 251 251 253 255 257 258 254 248 247 248 242 237 240 248 257 268 276 277 273 273 274 270 266
240 239 237 237 235 232 230 231 232 232 233 238 242 244 244 246 248 251 253 253 254 254 255 255 256 256 257 258 260 263 265 267 267 267 268 269 271 272 273 274 275 276 277 277 277 276 275 274 275 275 273 270 268 266 265 264 263 261 258 255 254 253 252 250 251 251 252 252 247 244 247 245 237 235 246 255 259 265 275 279 275 271 269 266 263
234 232 230 230 230 228 230 232 233 232 233 237 242 244 246 248 251 253 255 256 257 257 258 259 259 260 261 263 265 267 269 270 271 271 272 273 274 276 277 278 279 280 281 280 278 277 277 277 277 277 276 273 271 268 265 262 259 256 253 252 253 253 252 251 249 248 248 245 240 241 246 244 239 240 248 252 254 260 268 271 268 265 264 261 260
231 229 228 228 228 228 229 232 235 236 238 241 245 249 252 254 257 259 260 262 263 263 264 264 264 264 265 266 267 269 271 272 273 274 275 276 277 277 278 279 280 280 281 281 281 282 282 281 281 281 279 277 275 271 266 262 258 254 251 249 250 251 250 249 248 246 245 240 235 238 243 243 240 242 244 244 248 255 261 262 259 258 259 258 259
232 231 230 231 232 233 235 238 241 245 246 248 252 255 258 260 263 265 266 266 267 269 269 269 270 270 270 271 272 273 275 276 277 278 278 279 280 281 282 283 284 285 286 286 287 288 286 285 284 282 281 279 277 275 272 267 262 258 253 249 247 247 247 246 244 242 241 234 228 231 239 241 241 241 240 238 244 252 257 258 255 253 256 258 258
236 236 237 239 241 243 245 247 249 251 252 254 256 259 261 264 267 268 270 271 272 273 273 274 274 274 274 275 276 277 278 279 280 282 283 284 285 286 287 288 289 290 290 290 290 288 286 285 284 282 281 280 279 278 275 271 266 262 256 249 245 243 243 243 240 236 234 229 223 225 235 239 238 236 236 239 246 251 254 255 253 252 255 258 255
240 242 244 246 248 250 252 254 255 257 258 260 263 265 267 269 270 271 272 273 274 275 275 275 275 275 276 277 278 279 281 283 284 286 286 287 287 287 288 288 289 289 288 288 286 285 284 284 284 285 284 281 276 272 271 270 267 263 258 250 244 241 240 239 236 232 228 224 218 219 229 233 230 230 235 241 243 243 245 249 252 255 259 258 252
242 244 246 249 252 254 257 258 261 264 266 268 270 271 271 272 272 271 272 271 271 272 272 272 273 273 275 276 277 278 280 282 282 283 284 284 286 286 287 288 288 287 287 287 286 286 287 288 291 296 294 287 276 267 265 266 265 262 260 254 246 241 239 238 235 228 221 214 209 210 218 223 225 229 234 236 234 236 241 247 253 258 260 259 251
243 245 248 252 256 261 264 265 267 269 270 271 272 272 272 271 270 268 267 266 266 267 267 268 269 270 271 273 274 276 278 278 279 281 282 284 287 288 288 290 291 291 292 292 292 293 294 298 307 313 306 293 278 263 259 260 256 249 246 247 246 244 241 235 227 215 207 204 204 207 213 218 223 228 229 227 227 233 242 250 256 260 261 258 250
246 248 252 257 261 265 268 268 269 268 268 268 268 267 266 265 263 262 261 260 260 260 260 262 265 267 270 272 274 277 281 282 284 286 287 290 294 295 295 297 299 300 300 299 299 302 304 308 318 324 318 300 280 264 261 262 254 243 241 247 250 243 232 221 208 197 195 200 204 208 212 217 221 222 221 221 226 234 244 253 259 263 263 258 249
253 255 257 259 260 261 260 259 259 259 258 258 258 258 257 256 255 254 253 253 253 254 257 261 265 267 270 274 278 284 289 291 294 297 299 301 304 305 305 306 306 307 309 309 311 316 320 320 325 331 334 324 292 265 251 244 239 233 233 235 232 220 208 199 191 188 192 199 202 204 207 211 213 213 213 217 226 238 249 257 262 265 265 259 249
251 251 251 249 247 246 244 244 245 246 246 246 246 246 246 247 247 248 250 252 255 258 261 264 267 269 273 278 284 292 297 300 304 309 310 310 311 313 313 314 312 312 315 318 320 327 336 341 342 343 344 331 280 228 199 194 198 197 196 197 194 185 178 180 184 187 193 198 200 199 200 202 206 209 212 218 230 244 254 259 263 264 261 256 250
238 239 240 240 238 235 233 233 232 231 234 237 238 239 242 245 247 251 254 256 259 261 263 267 271 274 278 284 290 296 303 306 309 313 315 314 314 316 317 316 314 314 319 325 327 332 343 354 1 2 359 348 178 157 142 133 136 143 146 151 155 159 166 176 184 191 196 198 196 193 194 199 204 210 219 230 242 253 259 262 262 261 257 252 250
229 231 233 232 231 230 231 232 232 231 231 233 235 237 242 246 250 253 255 256 258 261 263 268 274 278 283 289 295 300 305 308 309 313 316 316 316 316 315 314 314 319 329 339 343 344 346 345 338 335 337 328 190 176 176 200 243 263 290 270 184 183 184 186 190 196 197 192 187 187 192 200 207 218 234 246 254 260 263 263 263 262 258 252 247
222 223 224 224 224 226 230 234 239 241 242 243 244 245 248 251 253 255 257 260 264 267 269 273 278 282 287 292 296 300 304 307 309 312 316 317 315 309 302 303 322 343 356 3 5 3 355 338 315 301 301 293 265 256 266 265 256 257 259 232 215 214 211 203 199 195 187 178 178 185 195 205 216 231 245 254 260 263 264 263 263 262 259 253 247
214 214 216 219 221 223 224 229 236 240 240 242 245 246 248 251 254 257 261 265 268 272 275 279 282 285 289 292 294 297 302 306 309 311 313 313 308 294 281 280 314 353 0 8 16 15 5 358 358 354 344 333 313 280 258 240 232 229 223 214 211 208 200 190 180 169 163 168 181 196 208 219 230 242 253 259 262 263 263 263 263 261 258 254 249
223 225 226 226 227 228 228 229 233 234 234 237 241 244 246 250 254 258 262 265 267 270 275 280 282 283 284 287 290 295 299 303 306 308 308 305 300 287 272 273 307 342 346 350 5 5 356 357 4 2 358 359 6 6 224 193 189 185 183 182 178 168 160 157 155 159 170 184 197 211 225 235 244 253 259 261 262 263 263 264 264 262 258 253 249
242 243 241 239 237 238 239 241 242 243 242 242 244 246 248 252 255 257 260 263 266 267 269 270 272 276 279 283 288 293 297 300 302 304 303 302 300 290 273 277 304 327 340 360 25 22 355 358 8 8 13 37 70 83 99 124 139 147 152 154 152 153 160 170 177 186 196 205 213 225 239 250 256 260 262 265 267 267 265 265 266 264 259 251 245
251 249 247 246 245 245 245 245 247 248 249 249 250 251 253 254 255 256 257 258 260 261 261 263 267 272 278 281 284 288 292 293 294 296 299 298 297 290 278 279 296 314 332 358 27 43 30 22 25 19 22 57 87 101 112 123 132 141 151 159 169 179 188 194 199 205 213 224 234 244 251 256 261 264 266 267 269 270 269 267 264 260 256 249 242
251 250 250 252 253 253 251 249 249 250 251 253 254 256 256 256 257 256 255 255 255 256 257 260 263 268 273 276 278 281 283 282 279 282 288 288 286 285 277 268 273 294 321 337 349 4 9 1 344 306 313 36 114 139 154 165 175 184 190 193 195 199 203 207 214 223 232 240 247 252 255 259 263 266 266 265 264 266 268 266 260 255 252 247 241
252 254 255 257 259 259 257 255 253 252 252 253 253 254 254 255 256 256 255 256 257 257 258 261 266 270 273 273 269 265 262 258 258 264 270 266 262 264 260 249 257 280 293 294 299 302 289 271 267 273 276 262 229 208 204 207 211 213 213 212 212 216 221 227 232 239 244 248 252 257 261 263 265 266 266 265 263 262 263 263 258 252 248 245 242
254 258 260 261 263 264 263 261 259 256 255 254 253 252 254 255 256 257 257 258 258 259 261 263 266 267 267 265 258 250 243 238 237 243 250 250 250 257 264 263 262 266 270 268 267 268 265 264 266 261 251 243 235 225 219 219 221 221 223 228 232 235 239 244 246 249 253 256 260 262 265 267 268 268 268 266 264 262 260 259 255 250 246 243 241
Height
3160 3162 3164 3166 3168 3170 3173 3175 3177 3179 3181 3182 3184 3186 3188 3189 3191 3192 3192 3193 3194 3195 3196 3198 3198 3199 3200 3201 3201 3202 3203 3204 3205 3206 3208 3209 3210 3211 3212 3213 3215 3215 3216 3217 3217 3217 3218 3218 3218 3219 3219 3219 3219 3219 3219 3219 3218 3218 3217 3217 3217 3216 3215 3215 3214 3214 3213 3213 3212 3211 3210 3210 3210 3209 3208 3208 3207 3207 3206 3205 3205 3204 3203 3203 3203
3157 3159 3161 3163 3165 3167 3170 3172 3174 3176 3178 3179 3181 3183 3185 3186 3188 3189 3189 3190 3192 3193 3194 3195 3196 3197 3198 3198 3199 3199 3200 3202 3203 3204 3206 3207 3208 3209 3210 3211 3212 3213 3214 3215 3216 3216 3216 3217 3217 3217 3217 3217 3217 3217 3217 3217 3217 3217 3216 3216 3215 3215 3214 3214 3213 3212 3212 3211 3211 3210 3209 3208 3208 3208 3207 3207 3206 3205 3205 3203 3203 3203 3202 3200 3199
3154 3156 3158 3160 3162 3165 3167 3169 3171 3173 3174 3176 3178 3180 3182 3183 3185 3186 3187 3188 3189 3190 3192 3193 3194 3194 3195 3196 3197 3197 3198 3199 3200 3201 3203 3205 3206 3207 3208 3208 3210 3211 3212 3213 3214 3214 3214 3215 3215 3215 3216 3216 3216 3216 3216 3215 3215 3215 3215 3214 3214 3213 3212 3212 3212 3211 3210 3209 3209 3209 3208 3207 3206 3206 3206 3205 3204 3203 3203 3202 3201 3200 3199 3198 3197
3151 3153 3155 3157 3159 3162 3163 3165 3167 3169 3171 3173 3175 3177 3179 3180 3181 3183 3184 3185 3186 3187 3189 3190 3191 3192 3193 3193 3194 3195 3195 3197 3198 3199 3200 3202 3204 3205 3205 3206 3207 3208 3210 3211 3211 3212 3212 3213 3214 3214 3213 3214 3214 3214 3214 3214 3214 3214 3213 3213 3213 3212 3211 3210 3210 3210 3209 3208 3207 3207 3206 3205 3204 3204 3203 3203 3202 3201 3200 3200 3199 3198 3197 3196 3195
3149 3150 3153 3154 3156 3158 3160 3162 3164 3166 3168 3170 3172 3174 3176 3177 3178 3179 3181 3182 3183 3184 3185 3187 3187 3188 3190 3191 3191 3192 3193 3194 3195 3197 3198 3199 3201 3202 3203 3204 3205 3206 3207 3208 3209 3209 3210 3211 3211 3211 3211 3211 3212 3212 3212 3212 3212 3212 3211 3211 3211 3211 3210 3209 3208 3208 3207 3207 3206 3205 3204 3203 3202 3201 3201 3200 3199 3198 3198 3197 3196 3195 3194 3194 3192
3146 3148 3150 3151 3153 3155 3157 3158 3160 3162 3165 3167 3169 3171 3172 3173 3174 3176 3178 3179 3180 3180 3181 3183 3184 3185 3187 3188 3189 3190 3191 3192 3192 3194 3195 3196 3198 3199 3200 3201 3202 3203 3204 3205 3206 3206 3207 3208 3208 3209 3208 3209 3210 3210 3210 3210 3210 3210 3209 3209 3209 3208 3208 3207 3206 3206 3205 3205 3204 3203 3202 3202 3201 3200 3199 3198 3197 3196 3195 3194 3193 3192 3191 3191 3191
3142 3145 3147 3149 3150 3152 3154 3156 3158 3160 3162 3164 3166 3168 3169 3171 3171 3172 3174 3176 3177 3177 3178 3179 3181 3182 3184 3186 3186 3187 3188 3189 3189 3191 3192 3193 3194 3196 3197 3198 3199 3200 3201 3202 3203 3203 3204 3205 3205 3206 3206 3206 3207 3208 3208 3208 3208 3208 3207 3207 3207 3206 3206 3205 3205 3204 3203 3203 3202 3201 3200 3199 3199 3198 3197 3195 3194 3193 3192 3191 3190 3190 3189 3189 3189
3139 3141 3144 3146 3148 3150 3152 3153 3156 3158 3160 3162 3164 3165 3166 3168 3169 3170 3171 3173 3174 3175 3175 3176 3178 3179 3180 3182 3183 3184 3185 3186 3186 3187 3189 3190 3191 3192 3193 3194 3195 3196 3198 3199 3200 3200 3200 3201 3202 3202 3203 3203 3204 3205 3205 3205 3205 3205 3205 3205 3204 3204 3204 3203 3203 3202 3201 3200 3200 3199 3199 3197 3196 3196 3195 3193 3192 3192 3190 3188 3187 3187 3186 3186 3186
3135 3137 3140 3143 3145 3147 3149 3151 3154 3156 3158 3159 3161 3162 3164 3166 3167 3168 3168 3170 3171 3172 3173 3173 3174 3176 3177 3178 3180 3181 3181 3182 3183 3184 3186 3187 3188 3188 3190 3191 3192 3193 3194 3195 3196 3196 3197 3197 3198 3199 3199 3200 3202 3202 3203 3202 3202 3202 3202 3202 3202 3202 3201 3201 3200 3200 3199 3198 3198 3197 3196 3195 3194 3194 3192 3191 3190 3189 3188 3186 3185 3185 3184 3183 3183
3132 3134 3136 3139 3142 3145 3147 3149 3152 3154 3155 3156 3158 3160 3162 3163 3164 3165 3166 3167 3169 3170 3171 3171 3171 3172 3174 3175 3176 3177 3177 3178 3179 3181 3182 3184 3185 3186 3186 3187 3188 3189 3190 3191 3192 3193 3193 3194 3194 3195 3196 3197 3198 3199 3200 3199 3199 3199 3200 3199 3199 3199 3199 3199 3198 3197 3197 3196 3196 3195 3194 3192 3192 3191 3189 3188 3187 3186 3185 3184 3183 3182 3181 3180 3179
3129 3131 3133 3136 3139 3141 3144 3147 3149 3151 3153 3154 3156 3158 3159 3160 3161 3163 3164 3165 3167 3168 3169 3169 3169 3169 3171 3172 3173 3173 3174 3175 3176 3178 3179 3181 3182 3183 3183 3184 3185 3186 3186 3187 3188 3189 3190 3190 3191 3191 3192 3193 3194 3195 3196 3196 3196 3196 3196 3196 3196 3196 3196 3196 3196 3195 3194 3194 3193 3192 3191 3190 3189 3188 3186 3185 3184 3183 3182 3181 3180 3179 3178 3178 3177
3126 3128 3130 3132 3135 3138 3141 3143 3146 3148 3150 3151 3153 3155 3157 3158 3158 3160 3161 3162 3164 3165 3166 3166 3167 3167 3168 3169 3170 3170 3171 3172 3173 3175 3176 3178 3179 3180 3180 3180 3181 3182 3183 3183 3184 3185 3186 3187 3187 3187 3187 3188 3190 3191 3193 3193 3192 3192 3193 3193 3193 3193 3193 3193 3193 3192 3192 3191 3190 3189 3188 3188 3187 3185 3184 3183 3181 3179 3179 3178 3177 3176 3175 3175 3174
3123 3124 3127 3129 3131 3134 3137 3140 3143 3145 3147 3149 3150 3152 3154 3155 3156 3157 3158 3159 3161 3162 3162 3164 3165 3165 3165 3166 3167 3168 3168 3169 3170 3171 3173 3174 3176 3176 3176 3176 3177 3178 3179 3179 3180 3180 3181 3182 3183 3183 3183 3184 3185 3187 3188 3189 3189 3189 3189 3189 3189 3189 3189 3190 3190 3189 3189 3188 3187 3186 3185 3185 3184 3183 3181 3180 3178 3177 3176 3175 3174 3173 3172 3172 3171
3121 3122 3124 3126 3128 3130 3134 3137 3139 3142 3143 3145 3147 3149 3151 3153 3153 3154 3155 3156 3157 3158 3159 3160 3161 3162 3162 3163 3164 3165 3165 3166 3167 3168 3169 3171 3172 3173 3173 3172 3173 3173 3174 3175 3175 3176 3177 3178 3178 3179 3179 3180 3181 3182 3184 3185 3186 3185 3184 3185 3185 3185 3185 3186 3186 3186 3185 3184 3184 3183 3182 3181 3180 3180 3178 3177 3175 3174 3173 3172 3171 3170 3170 3169 3168
3119 3120 3121 3123 3125 3127 3130 3133 3136 3138 3140 3142 3144 3146 3148 3149 3150 3151 3152 3153 3154 3155 3156 3157 3158 3159 3160 3160 3160 3161 3162 3163 3163 3165 3166 3167 3168 3169 3169 3169 3168 3169 3169 3170 3171 3172 3173 3173 3174 3174 3175 3175 3176 3178 3179 3180 3181 3181 3180 3180 3181 3181 3181 3182 3183 3182 3182 3181 3180 3180 3179 3178 3177 3176 3175 3174 3173 3172 3170 3169 3169 3168 3167 3166 3165
3116 3117 3119 3120 3122 3124 3127 3130 3132 3134 3136 3138 3140 3142 3144 3146 3147 3148 3149 3150 3151 3152 3153 3154 3155 3155 3156 3157 3157 3157 3158 3159 3160 3161 3163 3164 3165 3165 3165 3165 3164 3164 3164 3165 3166 3167 3168 3169 3169 3170 3170 3170 3172 3174 3175 3175 3176 3176 3176 3176 3176 3176 3176 3178 3179 3178 3178 3178 3177 3176 3175 3175 3174 3173 3171 3170 3170 3169 3167 3166 3165 3164 3163 3162 3162
3114 3115 3116 3118 3119 3121 3124 3126 3129 3131 3132 3134 3137 3139 3141 3142 3144 3145 3146 3147 3148 3149 3149 3150 3151 3152 3152 3153 3154 3154 3155 3156 3156 3157 3158 3160 3161 3161 3160 3160 3160 3159 3159 3160 3160 3162 3163 3164 3165 3165 3165 3166 3167 3169 3171 3171 3170 3171 3171 3171 3171 3170 3171 3173 3174 3174 3174 3173 3173 3172 3171 3171 3170 3169 3168 3167 3166 3165 3164 3163 3162 3161 3160 3159 3158
3111 3112 3113 3115 3117 3119 3121 3123 3125 3127 3129 3131 3133 3136 3137 3139 3140 3142 3143 3144 3145 3145 3146 3147 3147 3148 3149 3149 3150 3151 3151 3151 3152 3153 3154 3155 3156 3156 3156 3156 3155 3155 3155 3155 3155 3156 3157 3158 3159 3159 3160 3161 3162 3163 3165 3166 3166 3165 3165 3166 3165 3165 3166 3168 3169 3169 3169 3169 3168 3168 3167 3166 3166 3165 3164 3163 3162 3162 3161 3160 3159 3158 3156 3156 3155
3108 3109 3110 3112 3115 3116 3118 3120 3122 3124 3126 3128 3130 3132 3134 3135 3137 3138 3139 3140 3141 3142 3143 3143 3144 3144 3145 3146 3146 3147 3147 3147 3148 3149 3150 3150 3151 3151 3151 3151 3150 3150 3151 3151 3151 3151 3151 3152 3153 3154 3155 3156 3158 3158 3159 3160 3161 3160 3160 3160 3160 3160 3162 3162 3164 3165 3165 3164 3163 3163 3162 3162 3161 3161 3160 3160 3159 3158 3157 3156 3155 3154 3153 3153 3152
3105 3106 3108 3110 3112 3114 3115 3117 3118 3120 3123 3125 3127 3128 3130 3131 3133 3134 3135 3136 3137 3138 3139 3139 3140 3140 3141 3141 3141 3142 3142 3142 3143 3144 3145 3145 3146 3146 3146 3146 3146 3146 3146 3147 3146 3146 3146 3146 3146 3148 3150 3151 3152 3153 3153 3154 3156 3156 3155 3154 3154 3156 3156 3156 3158 3161 3161 3159 3159 3158 3158 3157 3157 3156 3156 3155 3155 3154 3153 3153 3152 3150 3149 3149 3149
3102 3103 3105 3107 3108 3110 3112 3113 3115 3117 3119 3121 3123 3124 3126 3127 3128 3129 3131 3132 3132 3133 3134 3135 3135 3136 3136 3136 3137 3137 3137 3137 3137 3139 3140 3140 3141 3141 3140 3141 3142 3142 3142 3142 3142 3141 3141 3140 3140 3142 3144 3145 3146 3147 3147 3148 3151 3151 3150 3148 3149 3151 3150 3148 3151 3155 3155 3154 3154 3154 3153 3153 3152 3151 3151 3151 3151 3150 3149 3149 3148 3147 3146 3146 3145
3099 3100 3101 3103 3105 3107 3109 3110 3112 3114 3116 3117 3118 3120 3121 3122 3123 3124 3126 3126 3127 3128 3129 3130 3131 3131 3131 3131 3132 3132 3132 3132 3132 3133 3135 3135 3136 3136 3135 3136 3137 3137 3136 3136 3136 3136 3136 3136 3135 3136 3137 3139 3140 3141 3142 3143 3145 3145 3145 3144 3144 3145 3143 3142 3144 3148 3148 3148 3149 3149 3149 3149 3147 3146 3146 3146 3147 3146 3146 3145 3145 3143 3143 3142 3142
3096 3097 3098 3100 3102 3104 3105 3107 3109 3111 3112 3113 3114 3116 3117 3117 3118 3120 3121 3122 3123 3124 3125 3126 3126 3126 3126 3126 3127 3127 3127 3127 3127 3128 3130 3130 3130 3130 3131 3131 3132 3132 3131 3131 3131 3131 3131 3131 3130 3130 3131 3133 3134 3135 3136 3137 3138 3139 3140 3139 3138 3138 3137 3135 3137 3140 3141 3142 3143 3143 3143 3143 3142 3141 3141 3141 3142 3142 3142 3141 3141 3140 3139 3138 3138
3092 3093 3094 3096 3098 3100 3101 3103 3105 3107 3108 3109 3110 3112 3113 3113 3114 3116 3117 3118 3119 3120 3121 3121 3121 3121 3121 3122 3122 3122 3122 3122 3123 3124 3125 3125 3125 3125 3126 3126 3126 3126 3126 3126 3127 3126 3126 3126 3126 3125 3125 3126 3127 3128 3129 3130 3131 3133 3134 3133 3131 3131 3131 3129 3130 3133 3135 3135 3137 3138 3137 3137 3137 3136 3137 3137 3136 3137 3138 3137 3136 3136 3135 3134 3135
3089 3090 3091 3092 3094 3096 3098 3100 3102 3103 3104 3105 3107 3108 3108 3109 3111 3112 3113 3114 3115 3115 3115 3115 3115 3116 3117 3117 3117 3117 3118 3118 3118 3119 3120 3121 3121 3121 3121 3121 3120 3120 3120 3120 3121 3121 3120 3121 3120 3119 3119 3120 3120 3121 3122 3122 3124 3125 3126 3125 3124 3124 3124 3122 3123 3126 3128 3128 3130 3131 3132 3133 3133 3132 3132 3132 3131 3132 3133 3132 3132 3131 3131 3131 3132
3086 3087 3088 3089 3090 3092 3095 3097 3099 3100 3101 3102 3103 3104 3105 3106 3107 3108 3109 3109 3110 3110 3110 3110 3111 3111 3111 3112 3112 3112 3113 3113 3114 3114 3114 3115 3115 3115 3115 3115 3114 3114 3113 3114 3115 3114 3114 3114 3113 3112 3112 3112 3112 3113 3115 3116 3117 3118 3118 3117 3117 3116 3116 3116 3117 3120 3121 3122 3124 3125 3127 3128 3128 3127 3127 3127 3126 3126 3127 3128 3127 3127 3127 3128 3128
3084 3085 3086 3087 3088 3089 3092 3094 3095 3097 3098 3099 3100 3101 3102 3102 3103 3104 3105 3105 3104 3105 3105 3106 3106 3106 3106 3107 3107 3108 3109 3110 3110 3110 3109 3109 3110 3110 3110 3110 3109 3108 3107 3108 3108 3108 3107 3106 3105 3104 3104 3104 3106 3107 3109 3109 3109 3109 3109 3109 3108 3108 3109 3109 3110 3112 3114 3116 3117 3120 3122 3123 3122 3122 3123 3122 3122 3122 3122 3123 3123 3123 3123 3124 3125
3081 3083 3084 3085 3086 3087 3089 3091 3092 3094 3095 3095 3096 3097 3098 3098 3099 3100 3100 3100 3100 3101 3101 3101 3101 3102 3102 3103 3103 3104 3105 3106 3106 3105 3103 3103 3104 3105 3104 3104 3104 3102 3101 3102 3102 3101 3100 3099 3098 3097 3096 3097 3097 3098 3097 3097 3097 3097 3097 3097 3097 3098 3100 3100 3101 3104 3106 3108 3111 3113 3115 3117 3117 3117 3118 3117 3116 3117 3118 3119 3120 3120 3120 3121 3121
3078 3080 3081 3082 3084 3085 3087 3088 3089 3090 3091 3092 3092 3093 3094 3095 3095 3095 3095 3096 3097 3097 3097 3098 3098 3098 3099 3099 3100 3101 3101 3101 3100 3099 3097 3097 3098 3099 3098 3098 3097 3096 3096 3096 3095 3094 3093 3091 3089 3089 3090 3090 3089 3088 3087 3086 3086 3086 3086 3086 3086 3086 3088 3089 3091 3094 3097 3100 3103 3105 3107 3109 3111 3113 3113 3112 3111 3111 3113 3115 3117 3117 3116 3117 3117
3075 3076 3078 3079 3081 3082 3084 3084 3085 3086 3087 3088 3088 3089 3090 3091 3091 3091 3092 3093 3093 3093 3094 3094 3094 3095 3095 3096 3096 3096 3096 3096 3095 3094 3093 3092 3092 3092 3092 3092 3091 3091 3092 3092 3089 3087 3085 3083 3081 3082 3083 3083 3081 3079 3077 3077 3077 3076 3076 3076 3076 3076 3078 3079 3081 3084 3088 3092 3094 3096 3099 3102 3105 3107 3107 3106 3106 3106 3108 3110 3113 3113 3112 3112 3112
3071 3073 3075 3076 3077 3079 3079 3080 3081 3082 3083 3083 3084 3085 3086 3086 3087 3088 3088 3089 3089 3090 3091 3091 3091 3091 3091 3091 3091 3090 3090 3090 3090 3090 3089 3088 3087 3087 3086 3085 3085 3085 3086 3086 3082 3079 3078 3075 3073 3073 3074 3072 3070 3068 3067 3066 3065 3064 3064 3065 3066 3067 3070 3073 3074 3076 3079 3083 3086 3088 3091 3095 3098 3100 3099 3099 3100 3101 3102 3104 3106 3108 3108 3108 3108
3069 3070 3072 3073 3074 3075 3076 3076 3078 3079 3079 3080 3080 3081 3082 3083 3083 3084 3084 3085 3086 3086 3086 3086 3086 3087 3087 3086 3086 3086 3085 3085 3084 3084 3084 3083 3082 3081 3080 3080 3079 3078 3078 3076 3073 3071 3071 3068 3065 3064 3064 3061 3059 3059 3056 3054 3053 3053 3052 3054 3056 3058 3061 3064 3067 3070 3074 3077 3079 3080 3084 3088 3090 3092 3092 3093 3095 3095 3096 3098 3101 3103 3104 3104 3104
3066 3067 3068 3069 3071 3071 3072 3073 3074 3075 3076 3076 3076 3077 3078 3079 3079 3080 3080 3081 3081 3081 3081 3082 3081 3081 3082 3081 3081 3080 3080 3079 3079 3079 3078 3077 3076 3075 3074 3074 3073 3072 3071 3068 3064 3063 3062 3060 3056 3054 3052 3049 3048 3048 3046 3044 3043 3044 3042 3042 3044 3048 3051 3054 3058 3064 3069 3071 3071 3072 3077 3080 3083 3084 3086 3088 3089 3090 3090 3092 3095 3097 3099 3100 3100
3063 3064 3065 3066 3067 3068 3069 3069 3070 3071 3072 3073 3073 3073 3074 3074 3075 3075 3075 3076 3077 3077 3077 3077 3076 3076 3076 3076 3075 3074 3074 3074 3073 3073 3072 3071 3070 3069 3067 3066 3066 3065 3062 3060 3058 3055 3053 3050 3046 3043 3040 3037 3036 3037 3036 3034 3033 3034 3034 3035 3037 3040 3042 3044 3048 3054 3059 3061 3062 3064 3069 3073 3076 3078 3080 3082 3084 3085 3086 3087 3090 3092 3094 3095 3096
3060 3061 3062 3063 3064 3065 3066 3066 3067 3068 3069 3069 3069 3070 3070 3070 3070 3071 3070 3071 3072 3072 3072 3071 3071 3071 3071 3070 3070 3069 3068 3068 3067 3066 3066 3065 3063 3062 3060 3059 3058 3057 3055 3053 3051 3048 3045 3041 3037 3033 3030 3026 3023 3023 3022 3020 3018 3021 3025 3028 3031 3033 3035 3037 3040 3045 3050 3054 3056 3059 3062 3066 3069 3072 3074 3077 3079 3080 3081 3083 3086 3088 3089 3091 3091
3057 3058 3059 3060 3061 3062 3062 3063 3064 3064 3065 3065 3065 3065 3066 3066 3066 3066 3066 3066 3066 3067 3067 3066 3066 3066 3066 3066 3065 3064 3064 3063 3062 3061 3060 3059 3058 3056 3055 3054 3053 3051 3049 3047 3045 3041 3038 3034 3030 3025 3021 3015 3011 3009 3007 3003 3002 3006 3012 3016 3020 3024 3026 3029 3034 3040 3044 3048 3052 3055 3057 3060 3063 3066 3069 3071 3073 3075 3077 3080 3082 3084 3085 3086 3087
3053 3054 3055 3056 3057 3058 3058 3059 3059 3060 3060 3060 3061 3061 3061 3061 3061 3061 3061 3061 3062 3062 3062 3061 3061 3061 3062 3061 3061 3060 3060 3059 3058 3057 3056 3054 3053 3051 3050 3048 3047 3045 3043 3041 3037 3034 3030 3026 3022 3017 3011 3004 2999 2998 2998 2996 2993 2994 2999 3006 3012 3015 3018 3024 3031 3035 3039 3044 3049 3051 3052 3054 3058 3062 3065 3067 3069 3072 3075 3077 3079 3080 3081 3081 3083
3049 3050 3051 3052 3053 3053 3054 3054 3055 3055 3056 3056 3057 3057 3058 3058 3058 3058 3058 3058 3058 3058 3057 3057 3057 3058 3058 3058 3057 3057 3056 3055 3054 3053 3052 3050 3049 3047 3045 3044 3041 3038 3036 3033 3029 3025 3022 3018 3014 3008 3001 2994 2990 2989 2991 2991 2987 2984 2988 2997 3005 3010 3015 3020 3025 3029 3034 3040 3045 3047 3048 3050 3054 3058 3061 3063 3066 3070 3073 3074 3076 3077 3077 3077 3079
3045 3046 3047 3048 3048 3049 3050 3051 3051 3052 3053 3053 3054 3054 3055 3055 3054 3054 3054 3054 3054 3054 3054 3054 3055 3055 3055 3055 3054 3054 3053 3052 3050 3049 3047 3046 3044 3043 3041 3039 3036 3033 3030 3026 3022 3018 3014 3010 3007 3002 2995 2988 2986 2985 2985 2984 2984 2985 2990 2995 2999 3004 3010 3014 3018 3024 3032 3038 3042 3043 3044 3047 3051 3055 3058 3061 3064 3068 3070 3071 3072 3073 3073 3074 3075
3042 3042 3043 3044 3045 3046 3047 3048 3049 3049 3050 3050 3051 3051 3052 3052 3052 3052 3052 3052 3052 3052 3051 3052 3052 3052 3052 3052 3051 3050 3049 3048 3047 3045 3043 3042 3040 3038 3037 3034 3031 3029 3026 3021 3015 3011 3007 3003 3000 2996 2990 2984 2984 2985 2983 2980 2980 2985 2989 2990 2991 2996 3003 3008 3014 3022 3029 3034 3038 3041 3043 3045 3048 3052 3055 3059 3062 3065 3067 3068 3069 3070 3070 3070 3071
3040 3040 3041 3041 3042 3044 3045 3046 3046 3046 3046 3047 3047 3048 3048 3049 3049 3049 3049 3049 3049 3049 3049 3049 3049 3049 3049 3048 3048 3047 3046 3044 3043 3042 3040 3038 3036 3034 3033 3031 3028 3025 3023 3019 3014 3009 3005 3001 2999 2996 2992 2988 2987 2989 2990 2988 2987 2987 2989 2992 2996 2998 2999 3004 3012 3020 3026 3030 3036 3040 3042 3045 3047 3050 3053 3057 3061 3063 3064 3065 3066 3066 3067 3067 3068
3038 3038 3038 3039 3040 3041 3042 3043 3043 3044 3044 3044 3044 3045 3045 3046 3047 3047 3047 3047 3047 3047 3046 3046 3046 3046 3046 3045 3045 3044 3043 3042 3040 3038 3037 3035 3033 3031 3030 3028 3025 3023 3021 3018 3015 3012 3009 3007 3005 3003 3001 2998 2995 2995 2998 3001 3001 3000 3001 3005 3008 3007 3004 3007 3014 3020 3025 3030 3035 3039 3042 3044 3047 3049 3052 3056 3058 3060 3061 3061 3062 3062 3063 3064 3064
3035 3035 3035 3036 3037 3038 3040 3041 3041 3041 3041 3042 3042 3042 3043 3044 3044 3044 3045 3045 3045 3045 3045 3044 3044 3044 3043 3042 3042 3041 3040 3038 3037 3035 3034 3033 3030 3029 3027 3026 3024 3022 3020 3018 3015 3013 3011 3010 3009 3008 3007 3006 3004 3002 3003 3004 3006 3007 3009 3012 3014 3014 3013 3015 3018 3021 3025 3030 3034 3037 3041 3043 3045 3048 3051 3053 3055 3057 3057 3058 3058 3059 3059 3060 3061
3032 3032 3033 3033 3035 3036 3037 3038 3039 3039 3039 3040 3040 3041 3041 3042 3042 3042 3043 3043 3043 3043 3043 3042 3042 3041 3040 3040 3039 3038 3037 3036 3034 3033 3032 3030 3029 3027 3026 3024 3023 3022 3020 3018 3016 3015 3013 3012 3011 3009 3009 3008 3007 3006 3005 3006 3007 3009 3012 3014 3016 3017 3016 3017 3019 3022 3026 3029 3033 3036 3040 3042 3045 3048 3050 3051 3052 3053 3054 3054 3054 3055 3056 3057 3057
3029 3030 3031 3032 3033 3034 3035 3036 3037 3037 3037 3038 3038 3039 3039 3040 3040 3040 3041 3041 3041 3041 3041 3040 3039 3038 3038 3037 3036 3035 3035 3034 3032 3031 3029 3029 3027 3026 3025 3024 3023 3021 3020 3019 3017 3016 3015 3014 3013 3011 3010 3009 3009 3008 3007 3007 3008 3010 3012 3015 3017 3017 3017 3018 3020 3023 3026 3029 3033 3036 3039 3041 3044 3046 3047 3048 3049 3050 3050 3050 3051 3051 3052 3053 3054
3026 3027 3028 3030 3031 3032 3033 3033 3034 3034 3035 3036 3036 3037 3037 3037 3038 3038 3039 3039 3039 3039 3039 3038 3037 3036 3035 3034 3033 3033 3032 3031 3030 3029 3028 3027 3026 3025 3024 3023 3022 3020 3019 3019 3018 3017 3016 3016 3015 3013 3012 3011 3011 3010 3010 3010 3010 3011 3013 3015 3016 3017 3017 3018 3020 3023 3026 3030 3033 3036 3038 3040 3042 3044 3044 3045 3045 3046 3047 3047 3047 3048 3049 3050 3051
3025 3026 3027 3028 3028 3029 3030 3030 3031 3032 3032 3033 3033 3034 3034 3035 3035 3036 3036 3036 3037 3037 3037 3036 3035 3034 3033 3032 3031 3030 3030 3029 3028 3027 3027 3026 3025 3024 3023 3022 3021 3020 3018 3018 3017 3017 3017 3016 3016 3015 3015 3014 3013 3012 3012 3013 3013 3014 3015 3016 3017 3018 3019 3020 3022 3025 3028 3031 3033 3036 3037 3039 3040 3041 3041 3041 3042 3043 3044 3044 3044 3044 3045 3047 3048
3022 3023 3023 3024 3025 3026 3027 3028 3028 3029 3030 3030 3031 3032 3032 3032 3032 3033 3033 3033 3034 3033 3033 3033 3033 3032 3031 3030 3029 3028 3028 3027 3026 3026 3025 3025 3024 3023 3022 3022 3021 3019 3018 3017 3017 3017 3017 3017 3016 3016 3016 3016 3015 3015 3015 3015 3016 3016 3017 3017 3018 3020 3021 3023 3024 3027 3029 3031 3033 3035 3036 3037 3037 3038 3038 3039 3039 3039 3039 3040 3041 3041 3041 3043 3044
3019 3019 3020 3021 3021 3023 3024 3025 3025 3026 3027 3028 3029 3029 3030 3029 3029 3029 3029 3030 3030 3030 3030 3030 3030 3029 3029 3028 3027 3026 3026 3025 3025 3024 3024 3024 3023 3022 3022 3021 3020 3019 3018 3017 3017 3017 3017 3017 3017 3017 3017 3017 3017 3017 3017 3017 3018 3018 3018 3019 3020 3022 3023 3024 3026 3028 3029 3030 3031 3032 3033 3034 3034 3034 3035 3036 3036 3036 3036 3036 3037 3038 3038 3039 3041
3016 3016 3017 3018 3019 3020 3021 3022 3023 3024 3025 3025 3025 3026 3026 3026 3026 3026 3026 3026 3027 3027 3027 3027 3027 3027 3026 3026 3025 3024 3024 3023 3023 3023 3023 3023 3022 3021 3021 3020 3020 3019 3018 3018 3017 3017 3017 3017 3017 3018 3018 3018 3018 3018 3018 3018 3019 3019 3020 3021 3022 3023 3024 3025 3026 3027 3028 3029 3029 3030 3031 3031 3032 3032 3032 3032 3033 3033 3033 3033 3034 3034 3035 3036 3037
3013 3014 3015 3016 3017 3018 3020 3020 3021 3022 3022 3022 3022 3023 3023 3022 3022 3022 3022 3023 3023 3023 3024 3024 3025 3025 3025 3024 3023 3022 3022 3021 3021 3021 3022 3022 3021 3021 3020 3020 3020 3019 3019 3018 3018 3017 3017 3018 3018 3018 3019 3019 3019 3019 3019 3019 3020 3021 3021 3022 3022 3023 3024 3025 3026 3026 3027 3027 3028 3028 3029 3029 3029 3029 3029 3029 3029 3030 3030 3030 3031 3031 3032 3033 3034